Weather History for CWWE - July, 2013

Change the Weather History Date:

Saturday, July 6, 2013

  Actual Average Record
Temperature  
Mean Temperature 74 °F -  
Max Temperature 89 °F - - ()
Min Temperature 59 °F - - ()
Cooling Degree Days 9    
Growing Degree Days 24 (Base 50)    
Moisture  
Dew Point 64 °F    
Average Humidity 81    
Maximum Humidity 100    
Minimum Humidity 43    
Precipitation  
Precipitation 0.00 in - - ()
Sea Level Pressure  
Sea Level Pressure 29.93 in    
Wind  
Wind Speed 6 mph ()    
Max Wind Speed 16 mph    
Max Gust Speed 23 mph    
T = Trace of Precipitation, MM = Missing Value Source: Averaged Metar Reports

Daily Weather History Graph

Daily Weather History Graph

Search for Another Location

Airport or City:

Trip Planner

Search our weather history database for the weather conditions in past years. The results will help you decide how hot, cold, wet, or windy it might be!

Date:

Astronomy

Jul. 06, 2013 Rise Set
Actual Time 5:42 AM ADT 9:03 PM ADT
Civil Twilight 5:07 AM ADT 9:39 PM ADT
Nautical Twilight 4:20 AM ADT 10:25 PM ADT
Astronomical Twilight 3:22 AM ADT 11:23 PM ADT
Moon 4:27 AM ADT (7/6) 7:40 PM ADT (7/6)
Length of Visible Light 16h 32m
Length of Day
15h 20m
Waning Crescent, 3% of the Moon is Illuminated
Jul 6
Waning Crescent
Jul 8
New
Jul 16
First Quarter
Jul 22
Full
Jul 29
Last Quarter

Hourly Weather History & Observations

Time (ADT) Temp. Heat Index Dew Point Humidity Pressure Visibility Wind Dir Wind Speed Gust Speed Precip Events Conditions
12:00 AM 64 °F - 59 °F 77% 29.99 in - SW 3.5 mph - -  
12:00 AM 64.0 °F - 58.6 °F 83% 29.99 in - SW 3.5 mph - N/A   Unknown
1:00 AM 62.1 °F - 60.3 °F 94% 29.99 in - WSW 3.5 mph - N/A   Unknown
2:00 AM 62.8 °F - 62.1 °F 97% 29.99 in - SW 3.5 mph - N/A   Unknown
3:00 AM 65 °F - 64 °F 96% 29.99 in - WSW 5.8 mph - -  
3:00 AM 65.1 °F - 64.0 °F 96% 29.99 in - WSW 5.8 mph - N/A   Unknown
4:00 AM 63.9 °F - 63.5 °F 99% 29.98 in - WSW 5.8 mph - N/A   Unknown
5:00 AM 62.8 °F - 62.8 °F 100% 29.98 in - WSW 8.1 mph - N/A   Unknown
6:00 AM 65 °F - 65 °F 98% 29.98 in - West 5.8 mph - -  
6:00 AM 64.6 °F - 64.6 °F 100% 29.98 in - West 5.8 mph - N/A   Unknown
7:00 AM 62.6 °F - 60.8 °F 94% 29.98 in - SW 2.3 mph - N/A   Unknown
8:00 AM 66.6 °F - 64.8 °F 94% 29.98 in - WSW 3.5 mph - N/A   Unknown
9:00 AM 69 °F - 64 °F 80% 29.98 in - SW 4.6 mph - -  
9:00 AM 68.5 °F - 64.2 °F 86% 29.98 in - SW 4.6 mph - N/A   Unknown
10:00 AM 70.9 °F - 65.3 °F 82% 29.96 in - SW 5.8 mph - N/A   Unknown
11:00 AM 70.3 °F - 64.6 °F 82% 29.96 in - SW 6.9 mph - N/A   Unknown
12:00 PM 70 °F - 64 °F 77% 29.94 in - SSW 9.2 mph - -  
12:00 PM 69.8 °F - 64.4 °F 83% 29.94 in - SSW 9.2 mph - N/A   Unknown
1:00 PM 66.6 °F - 61.9 °F 85% 29.93 in - SW 9.2 mph - N/A   Unknown
2:00 PM 67.8 °F - 62.4 °F 83% 29.92 in - West 5.8 mph - N/A   Unknown
3:00 PM 67 °F - 61 °F 75% 29.90 in - SW 9.2 mph - -  
3:00 PM 66.7 °F - 60.8 °F 81% 29.90 in - SW 9.2 mph - N/A   Unknown
4:00 PM 69.8 °F - 61.7 °F 75% 29.88 in - SW 5.8 mph - N/A   Unknown
5:00 PM 88.7 °F 92.2 °F 67.6 °F 50% 29.87 in - West 16.1 mph 23.0 mph N/A   Unknown
6:00 PM 87 °F - 67 °F 43% 29.86 in - West 11.5 mph - -  
6:00 PM 86.5 °F 89.6 °F 67.5 °F 53% 29.86 in - West 11.5 mph 18.4 mph N/A   Unknown
7:00 PM 85.5 °F 88.5 °F 67.5 °F 55% 29.85 in - West 13.8 mph 21.9 mph N/A   Unknown
8:00 PM 83.1 °F 86.6 °F 68.9 °F 62% 29.85 in - West 11.5 mph 18.4 mph N/A   Unknown
9:00 PM 78 °F - 69 °F 68% 29.86 in - West 9.2 mph - -  
9:00 PM 78.4 °F - 69.4 °F 74% 29.86 in - West 9.2 mph - N/A   Unknown
10:00 PM 75.4 °F - 68.7 °F 80% 29.87 in - West 9.2 mph - N/A   Unknown
11:00 PM 72.9 °F - 67.8 °F 84% 29.88 in - West 8.1 mph - N/A   Unknown